Regional Weather Roundup
Issued by NWS Little Rock, AR

Home | Current Version | Previous Version | Graphics & Text | Print | Product List | Glossary On
Versions: 1 2 3 4 5 6 7 8 9 10 11 12 13 14 15 16 17 18 19 20 21 22 23 24 25 26 27 28 29 30 31 32 33 34 35 36 37 38 39 40 41 42 43 44 45 46 47 48 49 50
000
ASUS44 KLZK 062205
RWRLZK

WEATHER ROUNDUP FOR ARKANSAS
NATIONAL WEATHER SERVICE LITTLE ROCK AR
400 PM CST TUE DEC 06 2016

NOTE: "FAIR" INDICATES FEW OR NO CLOUDS BELOW 12,000 FEET WITH NO
SIGNIFICANT WEATHER AND/OR OBSTRUCTIONS TO VISIBILITY.

ARZ001-003-010-029-062300-
NORTHWEST ARKANSAS

CITY           SKY/WX    TMP DP  RH WIND       PRES   REMARKS
FAYETTEVILLE   FAIR      42  33  70 N7        30.02R
FORT SMITH     FAIR      51  35  54 N6        30.01R
HARRISON       FAIR      42  35  76 N7        29.99R
BENTONVILLE    FAIR      43  23  45 N9        30.03R
ROGERS         FAIR      41  26  55 NW9       30.03R
SILOAM SPGS    FAIR      43  25  49 N10       30.03R
HIGHFILL       FAIR      42  28  57 N10       30.02R
SPRINGDALE     MOCLDY    41  32  70 N8        30.04R
$$

ARZ004-005-016-062300-
NORTH CENTRAL ARKANSAS

CITY           SKY/WX    TMP DP  RH WIND       PRES   REMARKS
BATESVILLE     FAIR      48  37  66 NW6       29.98S
FLIPPIN        CLOUDY    45  34  65 NW8       29.98S
MTN HOME       FAIR      43  34  70 VRB5      29.99R
$$

ARZ040-041-062300-
WEST CENTRAL ARKANSAS

CITY           SKY/WX    TMP DP  RH WIND       PRES   REMARKS
MENA           PTSUNNY   50  45  81 N5        29.99R
MOUNT IDA      PTSUNNY   52  40  63 CALM      29.96
$$

ARZ009-017-025-026-028-062300-
NORTHEAST ARKANSAS

CITY           SKY/WX    TMP DP  RH WIND       PRES   REMARKS
CORNING        FAIR      48  39  71 NW14      29.98R
JONESBORO      FAIR      55  37  50 N9        29.95R
NEWPORT        FAIR      52  41  66 NW14      29.97R
WALNUT RIDGE   FAIR      48  37  66 NW17      29.97R
BLYTHEVILLE    FAIR      56  43  61 N8        29.97R
NW BLYTHEVILLE PTCLDY    54  41  62 N8        29.96R
$$

ARZ022-023-033-042-044-062300-
CENTRAL ARKANSAS

CITY           SKY/WX    TMP DP  RH WIND       PRES   REMARKS
LITTLE ROCK    MOCLDY    54  40  59 N9        29.98R
N LITTLE ROCK    N/A     51  41  69 N7        30.00R
SEARCY         FAIR      53  40  61 N8        29.98R
HOT SPRINGS    MOCLDY    54  42  64 N3        29.98R
RUSSELLVILLE   FAIR      50  38  63 NE9       29.99R
CLINTON        MOCLDY    46  39  76 NW7       29.99R
$$

ARZ036-062300-
EAST ARKANSAS

CITY           SKY/WX    TMP DP  RH WIND       PRES   REMARKS
WEST MEMPHIS   CLOUDY    53  43  68 N5        29.96R
$$

ARZ050-053-066-070-073-062300-
SOUTHWEST ARKANSAS

CITY           SKY/WX    TMP DP  RH WIND       PRES   REMARKS
ARKADELPHIA    CLOUDY    52  45  77 CALM      30.00R
CAMDEN         CLOUDY    50  43  76 N5        30.01R
TEXARKANA      CLOUDY    49  46  90 VRB3      30.00R FOG
EL DORADO      CLOUDY    51  47  86 N5        29.99R
DE QUEEN       CLOUDY    55  42  61 NE7       29.96R
$$

ARZ056-057-069-062300-
SOUTHEAST ARKANSAS

CITY           SKY/WX    TMP DP  RH WIND       PRES   REMARKS
PINE BLUFF     CLOUDY    53  42  66 NW6       29.99R
STUTTGART      FAIR      54  39  58 NW9       29.98R
MONTICELLO     CLOUDY    51  44  77 CALM      30.00R

$$





USA.gov is the U.S. government's official web portal to all federal, state and local government web resources and services.